STARLINK-5650, 55475

Orbit data source: Space-Track

STARLINK-5650, 55475 is a payload satellite owned by SpaceX/Seattle (US) in LEO that was launched on Thu, 02 Feb 2023 UTC via an FALCON 9 launch vehicle from the Air Force Eastern Test Range (AFETR). Payload-class satellites include a variety of spacecraft equipped with specific instruments for various scientific and technological missions. These include communications satellites like Starlink; space stations such as the ISS; scientific satellites like the Hubble; Earth observation satellites from companies like Planet Labs, Umbra, and HawkEye 360; GPS; miniature CubeSats for education and research; and military/defense satellites.

Loading next visibility...
Identifier
55475, 2023-015AC
Orbit
LEO
Last TLE update
4 hours ago
Origin
Manufacturer
SpaceX/Seattle
Mission
Operational Commercial Communications
Bus & Motor
STARLINK, Unknown motor
Mass
305 kg wet, ~290 kg dry
Launch date (UTC)
2023-02-02 (2 years ago)
Launch vehicle
FALCON 9
Launch site
Air Force Eastern Test Range (AFETR)
Object type
Payload
Rocket body
Debris
Shape & HBR
Box + 1 Pan, 8.86 m
Radar Cross Section
13.562 m², Large (>1 m²)

Expand to show TLE details & history

TLE from 4 hours ago
0 STARLINK-5650
1 55475U 23015AC  25182.24065970  .00000403  00000-0  44876-4 0  9998
2 55475  43.0036 251.9411 0001511 271.9813  88.0856 15.02537326132933
Epoch: 2025-07-01T05:46Z
TLE epoch observation values (Epoch: 2025-07-01T05:46:32.998Z)
Latitude
-0.00002°
Longitude
-114.23536°
Altitude
558.819 km
Speed
7.584 km/s
True Right ascension
16h 47m 45s
True Declination
0° 00' 00"
Sunlit
Object was in full shadow at epoch
Visualization orbit readout
Latitude
-40.22804°
Longitude
129.21947°
Altitude
570.263 km
Speed
7.577 km/s
Apparent Right ascension
09h 21m 28s
Apparent Declination
-40° 00' 46"
Sunlit
Object is in daylight
Visualization observer readout
Local Sidereal Time
21:43:02
Azimuth
93.071° ESE
Elevation
-85.867°
Doppler factor
1
Orbital elements
Apogee altitude
562.047 km
Perigee altitude
559.95 km
Semi-major axis
6,939.136 km
Eccentricity
0.00015
Inclination
43.0036°
RAAN
251.9411°
Arg. of periapsis
271.9813°
True anomaly
Unknown
Mean anomaly
88.0856°
Eccentric anomaly
Unknown
Mean motion
3.75479 °/min
Orbital period
95.88 mins
BSTAR
0.000044876
Loading maneuver chart data...
Loading SW <> Apogee altitude chart data...
Loading historical data...
Loading historical data...
Loading historical data...
Loading historical data...
Loading historical data...
Loading historical data...
Loading historical data...

STARLINK-5650 Visibility forecast

Observer location: undefined°, undefined°

Span
Click to sort rows by Start time (UTC) header in descending order
Start Az.
Max El. time (UTC)
Max El. Az.
Max El.
End time (UTC)
End Az.
7 mins2025-07-01 10:53:38.863Z281.458° WNW2025-07-01 10:57:38.863Z21.697° NNE38.595°2025-07-01 11:00:38.863Z74.876° E
6 mins2025-07-01 12:35:38.863Z290.126° WNW2025-07-01 12:38:38.863Z87.333° E43.046°2025-07-01 12:41:38.863Z104.755° ESE
5 mins2025-07-01 14:16:38.863Z256.976° W2025-07-01 14:18:38.863Z212.228° SW26.177°2025-07-01 14:21:38.863Z157.121° SSE
6 mins2025-07-02 07:30:38.863Z199.61° SSW2025-07-02 07:32:38.863Z157.371° SSE28.271°2025-07-02 07:36:38.863Z84.391° E
6 mins2025-07-02 09:10:38.863Z259.779° W2025-07-02 09:13:38.863Z22.738° NE43.936°2025-07-02 09:16:38.863Z70.16° E
|